This demonstration page uses our WeatherBlox Daily Observations layout. Learn more.

Left ArrowRight Arrow

39.92423, -83.80882

Hourly Observations for January 15, 2018

Temp ( °F °C ) Dew Point ( °F °C ) Humidity (%) Winds ( mph kmh ) Pressure ( in mb ) Visibility ( mi km ) Precip ( " mm )
12:56 am 00:56 Cloudy 14 -10 7 -13.9 73 73 SE 9 15 30.46 1032 10 16 N/A
1:56 am 01:56 Cloudy with Light Snow 14 -10 8 -13.3 77 77 SE 10 17 30.45 1031 9 14 N/A
2:13 am 02:13 Cloudy with Light Snow 14 -10 9 -13 79 79 SE 12 19 30.48 1032 9 14 N/A
2:31 am 02:31 Cloudy with Light Snow 14 -10 9 -13 79 79 SE 10 17 30.45 1031 9 14 N/A
2:52 am 02:52 Cloudy with Light Snow 14 -10 10 -12 85 85 SSE 9 15 30.45 1031 6 10 N/A
2:56 am 02:56 Cloudy with Light Snow 14 -10 10 -12.2 84 84 SSE 9 15 30.43 1030 5 8 N/A
3:11 am 03:11 Cloudy with Light Snow 14 -10 10 -12 85 85 SE 10 17 30.45 1031 7 11 N/A
3:56 am 03:56 Cloudy with Light Snow 15 -9.4 11 -11.7 84 84 SE 13 20 30.40 1030 9 14 N/A
4:16 am 04:16 Cloudy with Light Snow 16 -9 10 -12 79 79 SSE 10 17 30.42 1030 4 6 N/A
4:56 am 04:56 Cloudy with Light Snow 15 -9.4 12 -11.1 88 88 SSE 10 17 30.39 1029 4 6 N/A
5:56 am 05:56 Cloudy with Light Snow 15 -9.4 12 -11.1 88 88 SE 10 17 30.38 1029 4 6 N/A
6:56 am 06:56 Cloudy with Light Snow 15 -9.4 13 -10.6 91 91 SSE 9 15 30.38 1029 4 6 N/A
7:21 am 07:21 Cloudy with Light Snow 16 -9 12 -11 86 86 SSE 9 15 30.42 1030 9 14 N/A
7:56 am 07:56 Cloudy with Light Snow 16 -8.9 13 -10.6 88 88 SSE 10 17 30.37 1028 3 5 N/A
8:03 am 08:03 Cloudy with Light Snow 16 -9 12 -11 86 86 SSE 10 17 30.42 1030 3 5 0.01 0.25
8:48 am 08:48 Cloudy with Light Snow 18 -8 14 -10 86 86 SSE 10 17 30.42 1030 2 3 0.01 0.25
8:56 am 08:56 Cloudy with Light Snow 18 -7.8 14 -10 84 84 SSE 13 20 30.36 1028 3 4 0.01 0.25
9:08 am 09:08 Cloudy with Light Snow 18 -8 16 -9 93 93 SSE 9 15 30.42 1030 4 6 N/A
9:56 am 09:56 Cloudy with Light Snow 19 -7.2 16 -8.9 88 88 SSE 8 13 30.36 1028 3 5 0.01 0.25
10:02 am 10:02 Cloudy with Light Snow 19 -7 16 -9 86 86 S 7 11 30.39 1029 2 3 N/A
10:09 am 10:09 Cloudy with Light Snow 19 -7 16 -9 86 86 S 12 19 30.39 1029 1 2 N/A
10:12 am 10:12 Cloudy with Light Snow 19 -7 16 -9 86 86 S 8 13 30.39 1029 1 1 N/A
10:19 am 10:19 Cloudy with Light Snow 19 -7 18 -8 93 93 S 7 11 30.39 1029 1 1 N/A
10:30 am 10:30 Cloudy with Light Snow 19 -7 18 -8 93 93 SSE 9 15 30.36 1028 1 2 N/A
10:56 am 10:56 Cloudy with Light Snow 21 -6.1 18 -7.8 88 88 SSE 12 19 30.33 1027 3 4 N/A
11:13 am 11:13 Cloudy with Light Snow 21 -6 18 -8 86 86 S 9 15 30.36 1028 2 2 N/A
11:32 am 11:32 Cloudy with Light Snow 23 -5 19 -7 86 86 S 8 13 30.36 1028 1 1 N/A
11:49 am 11:49 Cloudy with Light Snow 25 -4 19 -7 80 80 S 8 13 30.36 1028 1 2 0.01 0.25
11:56 am 11:56 Cloudy with Light Snow 24 -4.4 20 -6.7 84 84 S 9 15 30.32 1027 1 2 0.01 0.25
12:08 pm 12:08 Cloudy with Light Snow 25 -4 19 -7 80 80 SSE 8 13 30.33 1027 1 1 N/A
12:16 pm 12:16 Cloudy with Light Snow 25 -4 19 -7 80 80 S 8 13 30.33 1027 1 2 N/A
12:22 pm 12:22 Cloudy with Light Snow 25 -4 19 -7 80 80 S 7 11 30.33 1027 1 1 N/A
12:36 pm 12:36 Cloudy with Light Snow 25 -4 19 -7 80 80 S 9 15 30.33 1027 1 2 N/A
12:41 pm 12:41 Cloudy with Light Snow 25 -4 21 -6 86 86 SSE 10 17 30.30 1026 1 2 N/A
12:56 pm 12:56 Cloudy with Light Snow 25 -3.9 21 -6.1 85 85 S 10 17 30.27 1025 1 2 N/A
1:03 pm 13:03 Cloudy with Light Snow 25 -4 21 -6 86 86 S 9 15 30.30 1026 1 2 N/A
1:19 pm 13:19 Cloudy with Light Snow 27 -3 21 -6 80 80 S 9 15 30.30 1026 2 2 N/A
1:32 pm 13:32 Cloudy with Light Snow 27 -3 21 -6 80 80 S 12 19 30.27 1025 1 2 N/A
1:47 pm 13:47 Cloudy with Light Snow 27 -3 21 -6 80 80 S 8 13 30.27 1025 1 1 N/A
1:56 pm 13:56 Cloudy with Light Snow 26 -3.3 22 -5.6 84 84 S 8 13 30.24 1024 1 1 N/A
2:56 pm 14:56 Cloudy with Light Snow 28 -2.2 24 -4.4 85 85 SSW 9 15 30.24 1024 1 2 0.01 0.25
2:59 pm 14:59 Cloudy with Light Snow 27 -3 23 -5 86 86 SSW 8 13 30.27 1025 1 2 N/A
3:07 pm 15:07 Cloudy with Light Snow 27 -3 23 -5 86 86 SSW 8 13 30.27 1025 1 1 N/A
3:15 pm 15:15 Cloudy with Light Snow 27 -3 23 -5 86 86 SSW 9 15 30.27 1025 1 1 N/A
3:38 pm 15:38 Cloudy with Light Snow 27 -3 25 -4 93 93 SSW 9 15 30.30 1026 1 2 N/A
3:56 pm 15:56 Cloudy with Light Snow 27 -2.8 24 -4.4 89 89 SSW 9 15 30.26 1025 1 2 N/A
4:46 pm 16:46 Cloudy with Light Snow 27 -3 25 -4 93 93 SW 9 15 30.33 1027 1 2 N/A
4:53 pm 16:53 Cloudy with Light Snow 27 -3 25 -4 93 93 SW 10 17 30.33 1027 1 2 N/A
4:56 pm 16:56 Cloudy with Light Snow 26 -3.3 24 -4.4 92 92 SW 9 15 30.29 1026 1 2 N/A
5:14 pm 17:14 Cloudy with Light Snow 27 -3 25 -4 93 93 SW 10 17 30.33 1027 3 5 N/A
5:28 pm 17:28 Cloudy with Light Snow 27 -3 25 -4 93 93 SW 9 15 30.33 1027 5 8 N/A
5:56 pm 17:56 Cloudy with Light Snow 26 -3.3 24 -4.4 92 92 WSW 12 19 30.31 1026 9 14 N/A
6:56 pm 18:56 Cloudy with Light Snow 26 -3.3 23 -5 88 88 W 12 19 30.33 1027 9 14 N/A
7:56 pm 19:56 Cloudy with Light Snow 25 -3.9 23 -5 92 92 W 9 15 30.34 1027 9 14 N/A
8:56 pm 20:56 Cloudy with Light Snow 25 -3.9 23 -5 92 92 WSW 10 17 30.35 1028 8 13 N/A
9:48 pm 21:48 Cloudy with Light Snow 25 -4 21 -6 86 86 SW 7 11 30.39 1029 9 14 N/A
9:56 pm 21:56 Cloudy with Light Snow 25 -3.9 22 -5.6 88 88 SW 6 9 30.36 1028 9 14 N/A
10:25 pm 22:25 Cloudy with Light Snow 25 -4 23 -5 93 93 SW 8 13 30.39 1029 9 14 N/A
10:42 pm 22:42 Cloudy with Light Snow 25 -4 23 -5 93 93 SSW 6 9 30.39 1029 9 14 N/A
10:56 pm 22:56 Cloudy with Light Snow 25 -3.9 23 -5 92 92 SSW 8 13 30.35 1028 9 14 N/A
11:24 pm 23:24 Windy with Snow Likely 25 -4 19 -7 80 80 WNW 22 35 30.39 1029 6 10 N/A
11:31 pm 23:31 Cloudy with Light Snow 21 -6 18 -8 86 86 WNW 18 30 30.39 1029 4 6 N/A
11:56 pm 23:56 Cloudy with Light Snow 18 -7.8 14 -10 84 84 WNW 15 24 30.38 1029 5 8 N/A

Powered by AerisWeather